Hourly Data Report for October 02, 2016

All times are specified in Local Standard Time (LST). Add 1 hour to adjust for Daylight Saving Time where and when it is observed.

PANGNIRTUNG
NUNAVUT

66°08'36.300" N
65°42'40.500" W
22.60 m
2403049
71826
WXP

Download Data

Hourly Data (October 2016)
Hourly Data Report for October 2, 2016
Temp Definition
°C
Dew Point Temp Definition
°C
Rel Hum Definition
%
Wind Dir Definition
10's deg

Wind Spd Definition
km/h
Visibility Definition
km
Stn Press Definition
kPa
Hmdx Definition


Wind Chill Definition


Weather Definition


TIME
00:00 1.5 -1.4 81 25 14   100.55     LegendNANA
01:00 1.1 -2.9 75 28 11   100.52     LegendNANA
02:00 1.4 -4.3 66 24 10   100.51     LegendNANA
03:00 0.7 -4.3 69 29 5   100.50     LegendNANA
04:00 0.2 -3.6 75 29 8   100.50     LegendNANA
05:00 -0.3 -2.9 83 24 14   100.49   -5 LegendNANA
06:00 -0.3 -3.8 77 24 9   100.49   -3 LegendNANA
07:00 -0.5 -3.9 77 31 8   100.46   -3 LegendNANA
08:00 0.6 -4.3 70 31 10   100.43     LegendNANA
09:00 0.9 -5.5 63 27 13   100.39     LegendNANA
10:00 0.8 -5.2 64 28 4   100.38     LegendNANA
11:00 0.8 -4.7 67 31 3   100.36     LegendNANA
12:00 1.0 -5.0 64 29 15   100.36     LegendNANA
13:00 1.0 -4.9 64 30 10   100.37     LegendNANA
14:00 0.8 -6.7 57 30 15   100.38     LegendNANA
15:00 0.5 -6.4 60 28 15   100.40     LegendNANA
16:00 0.6 -5.5 64 28 8   100.42     LegendNANA
17:00 0.4 -5.2 66 31 9   100.44     LegendNANA
18:00 0.3 -4.9 68 28 10   100.45     LegendNANA
19:00 0.0 -5.0 69 30 12   100.46   -4 LegendNANA
20:00 -0.4 -4.9 71 29 17   100.47   -5 LegendNANA
21:00 -0.7 -4.8 74 30 12   100.49   -5 LegendNANA
22:00 -1.1 -5.4 73 29 15   100.50   -6 LegendNANA
23:00 -1.4 -5.8 72 32 11   100.52   -5 LegendNANA

Notes on Data Quality.

Legend

  • E = Estimated
  • M = Missing
  • NA = Not Available
  • ‡ = Partner data that is not subject to review by the National Climate Archives
Date modified: